timestamp,surface_pressure_avg,surface_temp_avg,battery_voltage,lat,long
2022-08-23 00:09:00+00:00,254.5547,18.88,11.53,47.84626,-54.09684
2022-08-23 00:19:01+00:00,248.6947,18.9,11.53,47.84626,-54.09684
2022-08-23 00:29:01+00:00,243.3864,18.9,11.53,47.84626,-54.09684
2022-08-23 00:39:01+00:00,243.3881,18.9,11.53,47.84626,-54.09684
2022-08-23 00:49:01+00:00,242.1048,18.9,11.53,47.84626,-54.09684
2022-08-23 00:59:01+00:00,238.2431,18.91,11.53,47.84626,-54.09684
2022-08-23 01:09:01+00:00,237.1331,18.94,11.53,47.84626,-54.09684
2022-08-23 01:19:00+00:00,239.5364,18.95,11.53,47.84626,-54.09684
2022-08-23 01:29:00+00:00,236.2397,18.95,11.53,47.84626,-54.09684
2022-08-23 01:39:00+00:00,230.1381,18.95,11.53,47.84626,-54.09684
2022-08-23 01:49:00+00:00,229.1331,18.95,11.53,47.84626,-54.09684
2022-08-23 01:59:00+00:00,228.5048,18.96,11.53,47.84626,-54.09684
2022-08-23 02:09:00+00:00,223.7781,18.96,11.53,47.84626,-54.09684
2022-08-23 02:19:00+00:00,222.3381,18.98,11.53,47.84626,-54.09684
2022-08-23 02:29:00+00:00,224.6514,18.99,11.53,47.84626,-54.09684
2022-08-23 02:39:00+00:00,225.1681,18.99,11.53,47.84626,-54.09684
2022-08-23 02:49:00+00:00,224.6314,19.0,11.53,47.84626,-54.09684
2022-08-23 02:59:00+00:00,224.9248,19.0,11.53,47.84626,-54.09684
2022-08-23 03:09:00+00:00,225.8448,19.0,11.53,47.84626,-54.09684
2022-08-23 03:19:00+00:00,224.1981,19.0,11.53,47.84626,-54.09684
2022-08-23 03:29:00+00:00,222.3564,19.0,11.53,47.84626,-54.09684
2022-08-23 03:39:00+00:00,223.2698,18.99,11.53,47.84626,-54.09684
2022-08-23 03:49:00+00:00,223.3414,18.99,11.53,47.84626,-54.09684
2022-08-23 03:59:00+00:00,222.7147,18.99,11.53,47.84626,-54.09684
2022-08-23 04:09:00+00:00,223.5265,18.99,11.53,47.84626,-54.09684
2022-08-23 04:19:01+00:00,223.6115,18.98,11.46,47.84626,-54.09684
2022-08-23 04:29:01+00:00,223.1781,18.98,11.46,47.84626,-54.09684
2022-08-23 04:39:01+00:00,225.0048,18.97,11.46,47.84626,-54.09684
2022-08-23 04:49:01+00:00,226.2697,18.96,11.46,47.84626,-54.09684
2022-08-23 04:59:01+00:00,226.2431,18.93,11.46,47.84626,-54.09684
2022-08-23 05:09:01+00:00,229.1214,18.92,11.46,47.84626,-54.09684
2022-08-23 05:19:01+00:00,233.6414,18.91,11.46,47.84626,-54.09684
2022-08-23 05:29:01+00:00,235.1981,18.91,11.46,47.84626,-54.09684
2022-08-23 05:39:01+00:00,237.213,18.91,11.46,47.84626,-54.09684
2022-08-23 05:49:01+00:00,242.1731,18.91,11.46,47.84626,-54.09684
2022-08-23 05:59:01+00:00,246.3714,18.91,11.46,47.84626,-54.09684
2022-08-23 06:09:01+00:00,247.7614,18.9,11.46,47.84626,-54.09684
2022-08-23 06:19:00+00:00,250.1631,18.9,11.46,47.84626,-54.09684
2022-08-23 06:29:00+00:00,254.998,18.9,11.46,47.84626,-54.09684
2022-08-23 06:39:00+00:00,259.7881,18.9,11.46,47.84626,-54.09684
2022-08-23 06:49:00+00:00,263.4281,18.9,11.46,47.84626,-54.09684
2022-08-23 06:59:00+00:00,269.4181,18.9,11.46,47.84626,-54.09684
2022-08-23 07:09:00+00:00,272.8981,18.9,11.46,47.84626,-54.09684
2022-08-23 07:19:00+00:00,275.0996,18.9,11.46,47.84626,-54.09684
2022-08-23 07:29:00+00:00,276.618,18.9,11.46,47.84626,-54.09684
2022-08-23 07:39:00+00:00,280.3314,18.89,11.46,47.84626,-54.09684
2022-08-23 07:49:00+00:00,279.9531,18.88,11.46,47.84626,-54.09684
2022-08-23 07:59:00+00:00,281.5814,18.8,11.46,47.84626,-54.09684
2022-08-23 08:09:00+00:00,285.0131,18.8,11.46,47.84626,-54.09684
2022-08-23 08:19:00+00:00,288.5997,18.8,11.46,47.84626,-54.09684
2022-08-23 08:29:00+00:00,288.2613,18.8,11.46,47.84626,-54.09684
2022-08-23 08:39:00+00:00,290.5696,18.8,11.46,47.84626,-54.09684
2022-08-23 08:49:00+00:00,293.6263,18.8,11.46,47.84626,-54.09684
2022-08-23 08:59:00+00:00,295.3997,18.81,11.46,47.84626,-54.09684
2022-08-23 09:09:00+00:00,292.7513,18.82,11.46,47.84626,-54.09684
2022-08-23 09:19:00+00:00,292.2596,18.82,11.46,47.84626,-54.09684
2022-08-23 09:29:00+00:00,292.5946,18.8,11.46,47.84626,-54.09684
2022-08-23 09:39:00+00:00,290.3047,18.8,11.46,47.84626,-54.09684
2022-08-23 09:49:00+00:00,287.6147,18.8,11.46,47.84626,-54.09684
2022-08-23 09:59:00+00:00,287.5581,18.8,11.46,47.84626,-54.09684
2022-08-23 10:09:00+00:00,286.3331,18.8,11.46,47.84626,-54.09684
2022-08-23 10:19:00+00:00,283.6931,18.8,11.46,47.84626,-54.09684
2022-08-23 10:29:00+00:00,282.8063,18.8,11.46,47.84626,-54.09684
2022-08-23 10:39:00+00:00,282.5547,18.8,11.46,47.84626,-54.09684
2022-08-23 10:49:00+00:00,277.9814,18.8,11.46,47.84626,-54.09684
2022-08-23 10:59:00+00:00,272.9781,18.8,11.46,47.84626,-54.09684
2022-08-23 11:09:00+00:00,273.2414,18.8,11.46,47.84626,-54.09684
2022-08-23 11:19:00+00:00,271.8647,18.8,11.46,47.84626,-54.09684
2022-08-23 11:29:00+00:00,266.3864,18.8,11.46,47.84626,-54.09684
2022-08-23 11:39:00+00:00,261.4348,18.81,11.46,47.84626,-54.09684
2022-08-23 11:49:00+00:00,258.8614,18.82,11.46,47.84626,-54.09684
2022-08-23 11:59:00+00:00,253.2481,18.84,11.46,47.84626,-54.09684
2022-08-23 12:09:00+00:00,246.8231,18.86,11.46,47.84626,-54.09684
2022-08-23 12:19:00+00:00,241.6781,18.87,11.53,47.84626,-54.09684
2022-08-23 12:29:00+00:00,240.5948,18.88,11.53,47.84626,-54.09684
2022-08-23 12:39:00+00:00,239.5898,18.86,11.53,47.84626,-54.09684
2022-08-23 12:49:00+00:00,236.2531,18.85,11.53,47.84626,-54.09684
2022-08-23 12:59:00+00:00,232.7797,18.83,11.53,47.84626,-54.09684
2022-08-23 13:09:00+00:00,231.9749,18.8,11.53,47.84626,-54.09684
2022-08-23 13:19:01+00:00,229.7531,18.8,11.53,47.84626,-54.09684
2022-08-23 13:29:01+00:00,225.6131,18.85,11.53,47.84626,-54.09684
2022-08-23 13:39:01+00:00,224.0448,18.86,11.53,47.84626,-54.09684
2022-08-23 13:49:01+00:00,224.4849,18.86,11.53,47.84626,-54.09684
2022-08-23 13:59:01+00:00,222.4247,18.85,11.53,47.84626,-54.09684
2022-08-23 14:09:01+00:00,218.2598,18.86,11.53,47.84626,-54.09684
2022-08-23 14:19:01+00:00,216.69299999999998,18.86,11.7,47.84626,-54.09684
2022-08-23 14:29:01+00:00,216.7014,18.87,11.7,47.84626,-54.09684
2022-08-23 14:39:01+00:00,217.4182,18.89,11.7,47.84626,-54.09684
2022-08-23 14:49:01+00:00,216.2164,18.9,11.7,47.84626,-54.09684
2022-08-23 14:59:01+00:00,216.9565,18.9,11.7,47.84626,-54.09684
2022-08-23 15:09:01+00:00,218.2431,18.9,11.7,47.84626,-54.09684
2022-08-23 15:19:01+00:00,220.6897,18.89,11.7,47.84626,-54.09684
2022-08-23 15:29:01+00:00,221.0781,18.9,11.7,47.84626,-54.09684
2022-08-23 15:39:01+00:00,219.8298,18.9,11.7,47.84626,-54.09684
2022-08-23 15:49:01+00:00,218.7681,18.9,11.7,47.84626,-54.09684
2022-08-23 15:59:01+00:00,220.6498,18.9,11.7,47.84626,-54.09684
2022-08-23 16:09:01+00:00,223.0681,18.9,11.7,47.84626,-54.09684
2022-08-23 16:19:01+00:00,225.0115,18.88,11.7,47.84626,-54.09684
2022-08-23 16:29:01+00:00,225.6364,18.8,11.7,47.84626,-54.09684
2022-08-23 16:39:01+00:00,225.7564,18.8,11.7,47.84626,-54.09684
2022-08-23 16:49:01+00:00,227.5214,18.8,11.7,47.84626,-54.09684
2022-08-23 16:59:01+00:00,230.7997,18.8,11.7,47.84626,-54.09684
2022-08-23 17:09:01+00:00,235.4497,18.8,11.7,47.84626,-54.09684
2022-08-23 17:19:00+00:00,240.3348,18.79,11.7,47.84626,-54.09684
2022-08-23 17:29:00+00:00,245.4631,18.77,11.7,47.84626,-54.09684
2022-08-23 17:39:00+00:00,249.0164,18.75,11.7,47.84626,-54.09684
2022-08-23 17:49:00+00:00,250.2147,18.76,11.7,47.84626,-54.09684
2022-08-23 17:59:00+00:00,252.7681,18.79,11.7,47.84626,-54.09684
2022-08-23 18:09:00+00:00,257.7681,18.8,11.7,47.84626,-54.09684
2022-08-23 18:19:01+00:00,264.1497,18.8,11.61,47.84626,-54.09684
2022-08-23 18:29:01+00:00,268.6881,18.8,11.61,47.84626,-54.09684
2022-08-23 18:39:01+00:00,273.8031,18.78,11.61,47.84626,-54.09684
2022-08-23 18:49:01+00:00,278.6197,18.7,11.61,47.84626,-54.09684
2022-08-23 18:59:01+00:00,286.0447,18.6,11.61,47.84626,-54.09684
2022-08-23 19:09:01+00:00,290.0747,18.58,11.61,47.84626,-54.09684
2022-08-23 19:19:00+00:00,293.3331,18.57,11.61,47.84626,-54.09684
2022-08-23 19:29:00+00:00,298.033,18.56,11.61,47.84626,-54.09684
2022-08-23 19:39:00+00:00,305.728,18.59,11.61,47.84626,-54.09684
2022-08-23 19:49:00+00:00,306.4331,18.6,11.61,47.84626,-54.09684
2022-08-23 19:59:00+00:00,304.658,18.59,11.61,47.84626,-54.09684
2022-08-23 20:09:00+00:00,310.1381,18.59,11.61,47.84626,-54.09684
2022-08-23 20:19:00+00:00,316.8864,18.59,11.61,47.84626,-54.09684
2022-08-23 20:29:00+00:00,319.6229,18.6,11.61,47.84626,-54.09684
2022-08-23 20:39:00+00:00,319.8679,18.6,11.61,47.84626,-54.09684
2022-08-23 20:49:00+00:00,323.5897,18.6,11.61,47.84626,-54.09684
2022-08-23 20:59:00+00:00,329.3829,18.6,11.61,47.84626,-54.09684
2022-08-23 21:09:00+00:00,330.653,18.6,11.61,47.84626,-54.09684
2022-08-23 21:19:00+00:00,328.6945,18.6,11.53,47.84626,-54.09684
2022-08-23 21:29:00+00:00,329.0646,18.6,11.53,47.84626,-54.09684
2022-08-23 21:39:00+00:00,332.8363,18.6,11.53,47.84626,-54.09684
2022-08-23 21:49:00+00:00,335.8730000000001,18.6,11.53,47.84626,-54.09684
2022-08-23 21:59:00+00:00,335.2413,18.68,11.53,47.84626,-54.09684
2022-08-23 22:09:00+00:00,335.3914,18.73,11.53,47.84626,-54.09684
2022-08-23 22:19:01+00:00,334.908,18.8,11.53,47.84626,-54.09684
2022-08-23 22:29:01+00:00,328.033,18.85,11.53,47.84626,-54.09684
2022-08-23 22:39:01+00:00,320.7297,18.9,11.53,47.84626,-54.09684
2022-08-23 22:49:01+00:00,320.2195,18.9,11.53,47.84626,-54.09684
2022-08-23 22:59:01+00:00,318.5146,18.9,11.53,47.84626,-54.09684
2022-08-23 23:09:01+00:00,314.7463,18.9,11.53,47.84626,-54.09684
2022-08-23 23:19:00+00:00,313.8748,18.9,11.53,47.84626,-54.09684
2022-08-23 23:29:00+00:00,313.653,18.9,11.53,47.84626,-54.09684
2022-08-23 23:39:00+00:00,306.6797,18.9,11.53,47.84626,-54.09684
2022-08-23 23:49:00+00:00,301.118,19.0,11.53,47.84626,-54.09684
2022-08-23 23:59:00+00:00,302.1097,19.0,11.53,47.84626,-54.09684
